Regional Weather Roundup
Issued by NWS

Home | Current Version | Previous Version | Text Only | Print | Product List | Glossary Off
Versions: 1 2 3 4 5 6 7 8 9 10 11 12 13 14 15 16 17 18 19 20 21 22 23 24 25 26 27 28 29 30 31 32 33 34 35 36 37 38 39 40 41 42 43 44 45 46 47 48 49 50

000
ASUS43 KOAX 232110
RWRNE

WEATHER ROUNDUP FOR NEBRASKA
NATIONAL WEATHER SERVICE OMAHA NE
400 PM CDT TUE MAY 23 2017

NOTES: SATELLITE DATA IS BEING USED TO AUGMENT CLOUD COVER ABOVE
       12000 FEET.
       "FAIR" INDICATES FEW OR NO CLOUDS BELOW 12,000 FEET WITH NO
       SIGNIFICANT WEATHER AND/OR OBSTRUCTIONS TO VISIBILITY.

  * THESE STATIONS DO NOT REPORT WEATHER SUCH AS RAIN...SNOW OR FOG.

NEZ001>004-019>022-054>056-232200-
NEBRASKA PANHANDLE

CITY           SKY/WX    TMP DP  RH WIND       PRES   REMARKS
SCOTTSBLUFF    CLOUDY    63  33  32 N22       30.08F
ALLIANCE       MOSUNNY   61  37  41 N18       30.06F
CHADRON        PTSUNNY   60  38  43 N17G26    30.08F
GORDON         CLOUDY    56  36  45 N17G28    30.07S
KIMBALL        CLOUDY    59  32  36 N18G25    30.11F
SIDNEY         LGT RAIN  54  37  52 N23G33    30.09S
$$

NEZ057>060-069>072-079>082-232200-
SOUTHWEST NEBRASKA

CITY           SKY/WX    TMP DP  RH WIND       PRES   REMARKS
NORTH PLATTE   CLOUDY    58  39  49 N16G25    30.02S
IMPERIAL       CLOUDY    60  34  37 N26G35    30.03F
LEXINGTON      CLOUDY    57  41  55 N24G33    29.99S
MCCOOK         PTSUNNY   66  36  32 N28G38    29.99F
OGALLALA       CLOUDY    64  32  31 N21G32    30.04F
$$

NEZ005>010-023>029-035>040-094-232200-
NORTH CENTRAL NEBRASKA

CITY           SKY/WX    TMP DP  RH WIND       PRES   REMARKS
VALENTINE      CLOUDY    57  35  43 N21G30    30.00F
AINSWORTH      CLOUDY    55  42  63 N22G31    29.99F
BROKEN BOW     CLOUDY    57  39  51 N29G37    29.97F
O`NEILL        CLOUDY    53  40  61 N20G26    29.96S
ORD            CLOUDY    54  38  54 N26G35    29.94F
THEDFORD       CLOUDY    56  37  49 NW23G30   30.01F
$$

NEZ041-046>049-061>064-073>077-083>087-232200-
SOUTH CENTRAL NEBRASKA

CITY           SKY/WX    TMP DP  RH WIND       PRES   REMARKS
GRAND ISLAND   CLOUDY    55  42  61 N22G31    29.94S
AURORA         CLOUDY    54  40  59 NW26G32   29.93R
HASTINGS       PTSUNNY   57  42  57 N24G31    29.94F
HEBRON         CLOUDY    58  44  59 NW14G28   29.90S
HOLDREGE       CLOUDY    54  38  55 NW16G25   29.97S
KEARNEY *      CLOUDY    55  37  50 N25G32    29.96S
YORK           CLOUDY    54  43  66 NW20G26   29.91R
$$

NEZ011>018-030>034-042>045-232200-
NORTHEAST NEBRASKA

CITY           SKY/WX    TMP DP  RH WIND       PRES   REMARKS
NORFOLK        CLOUDY    57  43  59 N22G31    29.89R
ALBION         CLOUDY    55  41  60 N22G30    29.92S
BLAIR          CLOUDY    57  46  65 NW13G20   29.84S
FREMONT        CLOUDY    56  47  70 NW21      29.87S
TEKAMAH        CLOUDY    60  47  61 NW18      29.84F
WAYNE          CLOUDY    55  45  68 NW21G28   29.87S
$$

NEZ050>053-065>068-078-088>093-232200-
SOUTHEAST NEBRASKA

CITY           SKY/WX    TMP DP  RH WIND       PRES   REMARKS
LINCOLN        CLOUDY    57  44  62 NW21G29   29.88F
OMAHA EPPLEY   CLOUDY    61  45  55 NW13      29.84S
BEATRICE       CLOUDY    58  47  67 N17       29.87F
FALLS CITY     CLOUDY    60  45  57 NW12      29.83S
NEBRASKA CITY  CLOUDY   N/A N/A N/A NW10      29.85S
PLATTSMOUTH    PTSUNNY   60  39  46 N9G18     29.84F
$$

NEZ044-045-051>053-067-232200-
OMAHA AREA

CITY           SKY/WX    TMP DP  RH WIND       PRES   REMARKS
OMAHA EPPLEY   CLOUDY    61  45  55 NW13      29.84S
BLAIR          CLOUDY    57  46  65 NW13G20   29.84S
FREMONT        CLOUDY    56  47  70 NW21      29.87S
MILLARD        LGT RAIN  56  49  78 N5        29.85R
OFFUTT AFB     CLOUDY    57  46  67 NW7       29.83F
PLATTSMOUTH    PTSUNNY   60  39  46 N9G18     29.84F
WAHOO          CLOUDY    57  49  77 N15G23    29.86F
$$



USA.gov is the U.S. government's official web portal to all federal, state and local government web resources and services.